Location: Street
(51.1247°N, 2.7429°W)
Time: 10:09:28
(UTC+01:00)

STRAND 1 - Pass Details

Date: 21 April 2024
Orbit: 766 x 777 km, 98.4° (Epoch: 29 May)

Event Time Altitude Azimuth Distance (km) Brightness Sun altitude
Rises 21:37:04 0° 4° (N) 3,250 ? -11.7°
Reaches altitude 10° 21:40:07 10° 345° (NNW) 2,320 ? -12.1°
Maximum altitude 21:43:18 17° 306° (NW) 1,877 ? -12.5°
Drops below altitude 10° 21:46:29 10° 267° (W) 2,315 ? -12.9°
Sets 21:49:32 0° 248° (WSW) 3,240 ? -13.2°
